TimeEDT,TemperatureF,Dew PointF,Humidity,Sea Level PressureIn,VisibilityMPH,Wind Direction,Wind SpeedMPH,Gust SpeedMPH,PrecipitationIn,Events,Conditions,WindDirDegrees,DateUTC
12:53 AM,62.1,39.9,44,30.14,10.0,East,10.4,-,N/A,,Partly Cloudy,90,2013-05-18 04:53:00
1:53 AM,61.0,39.9,46,30.13,10.0,ESE,6.9,-,N/A,,Clear,110,2013-05-18 05:53:00
2:53 AM,57.9,39.9,51,30.12,10.0,ESE,5.8,-,N/A,,Clear,110,2013-05-18 06:53:00
3:53 AM,55.9,41.0,57,30.12,10.0,NE,4.6,-,N/A,,Mostly Cloudy,40,2013-05-18 07:53:00
4:53 AM,57.0,43.0,59,30.12,10.0,NE,4.6,-,N/A,,Clear,50,2013-05-18 08:53:00
5:53 AM,55.9,43.0,62,30.13,10.0,NNE,4.6,-,N/A,,Overcast,30,2013-05-18 09:53:00
6:53 AM,57.9,45.0,62,30.15,10.0,NNE,6.9,-,N/A,,Overcast,30,2013-05-18 10:53:00
7:53 AM,60.1,45.0,57,30.14,10.0,NE,4.6,-,N/A,,Overcast,50,2013-05-18 11:53:00
8:53 AM,63.0,46.0,54,30.13,10.0,ENE,11.5,-,N/A,,Scattered Clouds,60,2013-05-18 12:53:00
9:53 AM,64.9,46.0,50,30.14,10.0,ENE,8.1,-,N/A,,Clear,70,2013-05-18 13:53:00
10:53 AM,71.1,46.0,41,30.12,10.0,ENE,10.4,-,N/A,,Clear,60,2013-05-18 14:53:00
11:53 AM,73.0,45.0,37,30.12,10.0,East,9.2,-,N/A,,Clear,100,2013-05-18 15:53:00
12:53 PM,75.0,46.9,37,30.11,10.0,ENE,8.1,-,N/A,,Scattered Clouds,70,2013-05-18 16:53:00
1:53 PM,79.0,48.0,34,30.09,10.0,East,8.1,-,N/A,,Partly Cloudy,90,2013-05-18 17:53:00
3:53 PM,82.9,46.0,27,30.05,10.0,East,10.4,17.3,N/A,,Clear,100,2013-05-18 19:53:00
4:53 PM,82.9,46.9,28,30.05,10.0,SE,10.4,-,N/A,,Clear,130,2013-05-18 20:53:00
5:53 PM,81.0,45.0,28,30.04,10.0,SE,12.7,-,N/A,,Clear,140,2013-05-18 21:53:00
6:53 PM,78.1,43.0,29,30.04,10.0,ESE,10.4,-,N/A,,Clear,110,2013-05-18 22:53:00
7:53 PM,73.9,43.0,33,30.06,10.0,ESE,9.2,-,N/A,,Clear,110,2013-05-18 23:53:00
8:53 PM,69.1,48.0,47,30.05,10.0,SSE,8.1,-,N/A,,Mostly Cloudy,150,2013-05-19 00:53:00
9:53 PM,63.0,46.9,56,30.06,10.0,SE,5.8,-,N/A,,Clear,140,2013-05-19 01:53:00
10:53 PM,62.1,44.1,52,30.06,10.0,East,3.5,-,N/A,,Clear,100,2013-05-19 02:53:00